Flag for Switzerland Weather past 2 weeks in Zürich, Zurich, Switzerland

Now
68 °F

Mild.


Feels Like: 68 °F
Forecast: 53 / 72 °F
Wind: 3 mph from East

Location: Zurich Town / Ville.

Current Time: Aug 28, 2014 at 2:01:31 PM

Latest Report: Aug 28, 2014 at 1:00 PM


Visibility: N/A

Pressure: 30.03 "Hg

Humidity: 67%

Dew point: 57 °F

Location of ZürichLocation

Historic Weather in Zürich — Graph

°F

Zürich temperature yesterday

Maximum temperature yesterday: 68 °F (at 4:00 PM)
Minimum temperature yesterday: 57 °F (at 2:00 AM)
Average temperature yesterday: 61 °F

Past Weeks' High & Low Weather Summary

 TemperatureHumidityPressure
High71 °F (Aug 18, 2:00 PM)98% (Aug 19, 8:00 AM)30.22 "Hg (Aug 19, 8:00 AM)
Low49 °F (Aug 17, 7:00 AM)42% (Aug 21, 4:00 PM)29.69 "Hg (Aug 13, 1:00 PM)
Average58 °F76%30.00 "Hg
* Reported Aug 13 12:00 Noon — Aug 28 12:00 Noon, Zürich, Weather by CustomWeather, © 2014

Note: Actual official high and low records may vary slightly from our data, if they occured in-between our weather recording intervals... More about our weather records

Advertising

Zürich weather history for previous 24 hours

 ConditionsComfort  
Time TempWeatherWind HumidityBarometerVisibility
12:00 PM
Aug 28
65 °FMild.2 mph74%30.05 "HgN/A
11:00 AM64 °FMild.2 mph76%30.06 "HgN/A
10:00 AM61 °FCool.1 mph85%30.07 "HgN/A
9:00 AM59 °FCool.1 mph91%30.08 "HgN/A
8:00 AM58 °FPassing clouds.1 mph95%30.08 "HgN/A
7:00 AM57 °FCool.1 mph96%30.07 "HgN/A
6:00 AM57 °FCool.1 mph95%30.06 "HgN/A
5:00 AM57 °FCool.No wind94%30.06 "HgN/A
4:00 AM57 °FCool.No wind91%30.06 "HgN/A
3:00 AM55 °FCool.3 mph95%30.07 "HgN/A
2:00 AM56 °FCool.3 mph94%30.07 "HgN/A
1:00 AM57 °FCool.5 mph91%30.06 "HgN/A
12:00 AM57 °FCool.2 mph91%30.06 "HgN/A
11:00 PM
Aug 27
58 °FCool.7 mph89%30.06 "HgN/A
10:00 PM58 °FCool.6 mph89%30.05 "HgN/A
9:00 PM60 °FCool.6 mph86%30.04 "HgN/A
7:00 PM64 °FMild.5 mph73%30.01 "HgN/A
6:00 PM66 °FMild.3 mph58%30.00 "HgN/A
5:00 PM67 °FMild.2 mph63%29.99 "HgN/A
4:00 PM68 °FMild.5 mph62%29.98 "HgN/A
3:00 PM64 °FMild.3 mph71%30.00 "HgN/A
2:00 PM65 °FOvercast.7 mph72%29.98 "HgN/A
Weather by CustomWeather, © 2014

See weather overviewHow to use our weather pages